Regional Weather Roundup
Issued by NWS Sioux Falls, SD

Home | Current Version | Previous Version | Text Only | Print | Product List | Glossary On
Versions: 1 2 3 4 5 6 7 8 9 10 11 12 13 14 15 16 17 18 19 20 21 22 23 24 25 26 27 28 29 30 31 32 33 34 35 36 37 38 39 40 41 42 43 44 45 46 47 48 49 50
000
ASUS43 KFSD 291210
RWRFSD

WEATHER ROUNDUP FOR SE SOUTH DAKOTA/SW MINNESOTA/NW IOWA
NATIONAL WEATHER SERVICE SIOUX FALLS SD
700 AM CDT SAT AUG 29 2015

NOTE: "FAIR" INDICATES FEW OR NO CLOUDS BELOW 12,000 FEET WITH NO
SIGNIFICANT WEATHER AND OR OBSTRUCTIONS TO VISIBILITY.


SDZ038>040-050-052>070-291300-
SOUTHEAST SOUTH DAKOTA

CITY           SKY/WX    TMP DP  RH WIND       PRES   REMARKS
BROOKINGS      MOCLDY    54  50  87 SE3       30.06S
CHAMBERLAIN    CLEAR     59  59 100 E3        30.03R FOG
6HR MIN TEMP:  59; 6HR MAX TEMP:  63;

HURON          CLEAR     59  57  93 SE9       30.01R
6HR MIN TEMP:  59; 6HR MAX TEMP:  64;

MADISON        FOG       52  52 100 S6        30.06R VSB 1/4
MITCHELL       CLEAR     59  57  93 S7        30.04R
6HR MIN TEMP:  57; 6HR MAX TEMP:  63;

SIOUX FALLS    CLEAR     52  51  97 CALM      30.06R FOG
6HR MIN TEMP:  51; 6HR MAX TEMP:  56;

WINNER         FAIR      66  60  81 SW10      30.03R
YANKTON        CLOUDY    55  55 100 S5        30.06R VSB<1/4
$$

MNZ071-072-080-081-089-090-097-098-291300-
SOUTHWEST MINNESOTA

CITY           SKY/WX    TMP DP  RH WIND       PRES   REMARKS
FAIRMONT       CLOUDY    55  52  88 CALM      30.04R VSB<1/4
JACKSON        FOG       55  55 100 CALM      30.06S VSB<1/4
LUVERNE        FOG       52  50  93 CALM      30.07R VSB<1/4
MARSHALL       CLEAR     52  48  87 CALM      30.05R
6HR MIN TEMP:  52; 6HR MAX TEMP:  55;

MONTEVIDEO     FAIR      54  54 100 S3        30.06R
PIPESTONE      CLEAR     52  50  93 CALM      30.06R
REDWOOD FALLS  FOG       51  51 100 S3        30.05R VSB 1/4
TRACY          CLEAR     55  54  97 S6        30.04S
WINDOM         FOG       55  55 100 CALM      30.05S VSB 1/4
WORTHINGTON    CLOUDY    54  50  87 CALM      30.06R VSB<1/4
$$

IAZ001>003-012>014-020>022-031-032-NEZ013-014-SDZ071-291300-
NORTHWEST IOWA

CITY           SKY/WX    TMP DP  RH WIND       PRES   REMARKS
CHEROKEE       CLOUDY    57  57 100 CALM      30.06R FOG
DENISON        CLOUDY    59  59 100 N5        30.02R FOG
ESTHERVILLE    FOG       56  56 100 N3        30.05R VSB 1/4
LE MARS        CLOUDY    59  57  94 NE7       30.07R
ORANGE CITY    FOG       55  55 100 CALM      30.06R VSB 1/4
SHELDON        FOG       57  57 100 VRB3      30.05R VSB<1/4
SIOUX CITY     CLOUDY    61  56  83 NE5       30.05R
6HR MIN TEMP:  61; 6HR MAX TEMP:  63;

SPENCER        FOG       57  55  93 NE3       30.06R VSB 1/2
6HR MIN TEMP:  57; 6HR MAX TEMP:  59;

STORM LAKE     CLOUDY    57  57 100 NE6G12    30.06R FOG
$$

ABBREVIATIONS USED IN REMARKS
   TC - TEMPERATURE IN CELSIUS
  WCI - WIND CHILL INDEX
   HX - HEAT INDEX
  VSB - VISIBILITY




USA.gov is the U.S. government's official web portal to all federal, state and local government web resources and services.